Weather History for Gainesville, FL

Change the Weather History Date:

Saturday, February 23, 2013

  Actual Average Record
Temperature  
Mean Temperature 71 °F 59 °F  
Max Temperature 82 °F 71 °F 87 °F (1962)
Min Temperature 59 °F 47 °F 24 °F (1978)
Degree Days  
Heating Degree Days 0 7  
Month to date heating degree days 176 198  
Since 1 July heating degree days 720 1000  
Cooling Degree Days 6 1  
Month to date cooling degree days 33 19  
Year to date cooling degree days 93 31  
Growing Degree Days 20 (Base 50)    
Moisture  
Dew Point 64 °F    
Average Humidity 76    
Maximum Humidity 93    
Minimum Humidity 58    
Precipitation  
Precipitation 0.14 in 0.12 in 1.64 in (1965)
Month to date precipitation 0.56 2.59  
Year to date precipitation 0.89 5.90  
Snow  
Snow 0.00 in 0.00 in 0.00 in ()
Month to date snowfall 0.0 0.0  
Since 1 July snowfall 0.0 0.0  
Snow Depth 0.00 in    
Sea Level Pressure  
Sea Level Pressure 29.95 in    
Wind  
Wind Speed 9 mph (SSW)    
Max Wind Speed 21 mph    
Max Gust Speed -    
Visibility 10 miles    
Events Rain , Thunderstorm    
T = Trace of Precipitation, MM = Missing Value Source: NWS Daily Summary

Daily Weather History Graph

Daily Weather History Graph

Search for Another Location

Airport:

Trip Planner

Search our weather history database for the weather conditions in past years. The results will help you decide how hot, cold, wet, or windy it might be!

Date:

Astronomy

Feb. 23, 2013 Rise Set
Actual Time 7:00 AM EST 6:24 PM EST
Civil Twilight 6:36 AM EST 6:48 PM EST
Nautical Twilight 6:08 AM EST 7:16 PM EST
Astronomical Twilight 5:41 AM EST 7:43 PM EST
Moon 4:37 PM EST (2/23) 5:16 AM EST (2/23)
Length of Visible Light 12h 11m
Length of Day
11h 23m
Waxing Gibbous, 95% of the Moon is Illuminated
Feb 23
Waxing Gibbous
Feb 25
Full
Mar 4
Last Quarter
Mar 11
New
Mar 19
First Quarter

Hourly Weather History & Observations

Time (EST) Temp. Heat Index Dew Point Humidity Pressure Visibility Wind Dir Wind Speed Gust Speed Precip Events Conditions
12:29 AM 62.6 °F - 60.8 °F 94% 30.00 in 10.0 mi Calm Calm - N/A   Overcast
12:46 AM 60.8 °F - 59.0 °F 94% 30.00 in 10.0 mi Calm Calm - N/A   Scattered Clouds
12:53 AM 62.1 °F - 59.0 °F 90% 30.00 in 10.0 mi Calm Calm - N/A   Mostly Cloudy
1:19 AM 62.6 °F - 60.8 °F 94% 30.00 in 10.0 mi Calm Calm - N/A   Overcast
1:42 AM 60.8 °F - 57.2 °F 88% 29.99 in 10.0 mi Calm Calm - N/A   Scattered Clouds
1:53 AM 59.0 °F - 57.9 °F 96% 29.99 in 10.0 mi Calm Calm - N/A   Clear
2:43 AM 60.8 °F - 57.2 °F 88% 29.97 in 10.0 mi Calm Calm - N/A   Scattered Clouds
2:53 AM 59.0 °F - 57.9 °F 96% 29.96 in 10.0 mi SSE 3.5 mph - N/A   Partly Cloudy
3:09 AM 60.8 °F - 60.8 °F 100% 29.97 in 6.0 mi Calm Calm - N/A   Mostly Cloudy
3:49 AM 64.4 °F - 64.4 °F 100% 29.96 in 10.0 mi SW 4.6 mph - N/A   Overcast
3:53 AM 66.0 °F - 64.0 °F 93% 29.95 in 10.0 mi SSW 4.6 mph - N/A   Overcast
4:18 AM 66.2 °F - 64.4 °F 94% 29.96 in 10.0 mi SSW 4.6 mph - N/A   Overcast
4:53 AM 66.9 °F - 64.9 °F 93% 29.94 in 10.0 mi SSW 8.1 mph - N/A   Overcast
5:25 AM 66.2 °F - 64.4 °F 94% 29.95 in 10.0 mi SSW 9.2 mph - N/A   Overcast
5:53 AM 66.9 °F - 64.9 °F 93% 29.95 in 10.0 mi SSW 6.9 mph - N/A   Mostly Cloudy
6:17 AM 66.2 °F - 64.4 °F 94% 29.96 in 10.0 mi SSW 6.9 mph - N/A   Partly Cloudy
6:41 AM 66.2 °F - 64.4 °F 94% 29.97 in 10.0 mi SSW 6.9 mph - N/A   Mostly Cloudy
6:53 AM 66.9 °F - 64.9 °F 93% 29.97 in 10.0 mi SW 6.9 mph - N/A   Overcast
7:53 AM 68.0 °F - 66.0 °F 93% 29.98 in 10.0 mi SSW 6.9 mph - N/A   Overcast
8:53 AM 70.0 °F - 66.0 °F 87% 29.99 in 10.0 mi SSW 10.4 mph - N/A   Overcast
9:22 AM 73.4 °F - 66.2 °F 78% 29.99 in 10.0 mi SSW 11.5 mph - N/A   Overcast
9:36 AM 73.4 °F - 66.2 °F 78% 29.99 in 10.0 mi SSW 10.4 mph - N/A   Mostly Cloudy
9:53 AM 73.0 °F - 66.0 °F 79% 29.98 in 10.0 mi South 12.7 mph - N/A   Overcast
10:53 AM 75.9 °F - 64.9 °F 69% 29.98 in 10.0 mi SW 19.6 mph - N/A   Overcast
11:01 AM 78.8 °F - 64.4 °F 61% 29.98 in 10.0 mi SW 10.4 mph - N/A   Mostly Cloudy
11:53 AM 75.9 °F - 64.0 °F 67% 29.98 in 10.0 mi WSW 12.7 mph - N/A   Overcast
12:50 PM 78.8 °F - 64.4 °F 61% 29.96 in 10.0 mi SW 16.1 mph - N/A   Mostly Cloudy
12:53 PM 78.1 °F - 64.0 °F 62% 29.95 in 10.0 mi SW 16.1 mph - N/A   Mostly Cloudy
1:53 PM 80.1 °F 81.7 °F 64.0 °F 58% 29.93 in 10.0 mi WSW 16.1 mph - N/A   Scattered Clouds
2:53 PM 80.1 °F 81.7 °F 64.0 °F 58% 29.91 in 10.0 mi WSW 16.1 mph - N/A   Scattered Clouds
3:53 PM 80.1 °F 81.9 °F 64.9 °F 60% 29.89 in 10.0 mi SW 13.8 mph - N/A   Partly Cloudy
4:53 PM 78.1 °F - 66.0 °F 66% 29.88 in 10.0 mi WSW 8.1 mph - N/A   Scattered Clouds
5:53 PM 77.0 °F - 64.9 °F 66% 29.88 in 10.0 mi SSW 13.8 mph - N/A   Mostly Cloudy
6:02 PM 75.2 °F - 64.4 °F 69% 29.89 in 10.0 mi SSW 13.8 mph - N/A   Mostly Cloudy
6:53 PM 73.9 °F - 66.0 °F 76% 29.90 in 10.0 mi SW 9.2 mph - N/A   Clear
7:53 PM 72.0 °F - 66.9 °F 84% 29.91 in 10.0 mi SW 9.2 mph - N/A   Partly Cloudy
8:43 PM 71.6 °F - 66.2 °F 83% 29.92 in 10.0 mi SW 8.1 mph - N/A   Mostly Cloudy
8:53 PM 72.0 °F - 68.0 °F 87% 29.92 in 10.0 mi SW 12.7 mph - N/A   Overcast
9:51 PM 71.6 °F - 68.0 °F 88% 29.93 in 10.0 mi SSW 3.5 mph - N/A   Overcast
9:53 PM 71.1 °F - 68.0 °F 90% 29.93 in 10.0 mi Calm Calm - N/A   Overcast
10:08 PM 71.6 °F - 68.0 °F 88% 29.93 in 10.0 mi South 5.8 mph - N/A Thunderstorm Overcast
10:44 PM 64.4 °F - 62.6 °F 94% 29.95 in 5.0 mi NNE 9.2 mph - 0.14 in Rain , Thunderstorm Light Rain
10:53 PM 64.0 °F - 62.1 °F 93% 29.94 in 10.0 mi NE 6.9 mph - 0.14 in Rain Light Rain
11:01 PM 62.6 °F - 60.8 °F 94% 29.95 in 10.0 mi NNE 9.2 mph - 0.00 in   Mostly Cloudy
11:10 PM 62.6 °F - 60.8 °F 94% 29.94 in 10.0 mi NE 5.8 mph - 0.00 in   Mostly Cloudy
11:53 PM 62.1 °F - 60.1 °F 93% 29.93 in 10.0 mi East 3.5 mph - 0.00 in   Overcast